Location: Alafon
(8.4500°N, 4.2333°E)
Time: 08:18:19
(UTC+00:00)

A-11 Canister half - Pass Details

Date: 07 August 2021
Orbit: 1515 x 1685 km, 47.2° (Epoch: 21 September)

Event Time Altitude Azimuth Distance (km) Brightness Sun altitude
Rises 22:58:04 0° 321° (NW) 4,926 12.0 -62.4°
Reaches altitude 10° 23:01:14 10° 322° (NW) 3,941 11.4 -62.7°
Enters shadow 23:02:24 14° 323° (NW) 3,589 11.1 -62.9°
Maximum altitude 23:11:26 82° 49° (NE) 1,688 - -63.7°
Drops below altitude 10° 23:21:28 10° 137° (SE) 3,885 - -64.5°
Sets 23:24:34 0° 138° (SE) 4,853 - -64.7°
